[Iaude] MPEC M84: 2020 MV1 [a=1.43,e=0.23,i=10.1,H=24.4]

mpec at marsden.cfa.harvard.edu mpec at marsden.cfa.harvard.edu
Tue Jun 23 09:08:03 EDT 2020


M.P.E.C. 2020-M84                                 Issued 2020 June 23, 13:06 UT

     The Minor Planet Electronic Circulars contain information on unusual
         minor planets and routine data on comets.  They are published
    on behalf of Division F of the International Astronomical Union by the
          Minor Planet Center, Smithsonian Astrophysical Observatory,
                          Cambridge, MA 02138, U.S.A.

             Prepared using the Tamkin Foundation Computer Network

                              MPC at CFA.HARVARD.EDU
            URL https://www.minorplanetcenter.net/    ISSN 1523-6714

                                    2020 MV1                                    


Observations:
     K20M01V  C2020 06 15.31765315 30 34.878-33 43 31.42         21.56GVEM084F51
     K20M01V  C2020 06 15.32670115 30 35.405-33 42 55.78         20.73GVEM084F51
     K20M01V* C2020 06 21.30392215 40 57.736-26 30 35.06         21.62wUEM084F51
     K20M01V  C2020 06 21.32852215 40 59.896-26 28 41.95         21.27wUEM084F51
     K20M01V  C2020 06 21.34081915 41 00.967-26 27 45.42         21.55wUEM084F51
     K20M01V ^C2020 06 22.37147915 43 03.011-25 07 33.63         21.28GVEM084568
     K20M01V ^C2020 06 22.37242515 43 03.097-25 07 29.18         21.17GVEM084568
     K20M01V ^C2020 06 22.37337615 43 03.185-25 07 24.59         21.21GVEM084568
     K20M01V KC2020 06 23.39958415 45 11.90 -23 45 10.5          21.4 GVEM084474
     K20M01V KC2020 06 23.40314315 45 12.26 -23 44 53.7          21.2 GVEM084474
     K20M01V KC2020 06 23.41934315 45 13.96 -23 43 36.3          21.6 GVEM084474
     K20M01V KC2020 06 23.42290215 45 14.37 -23 43 19.0          21.6 GVEM084474

Observer details:
474 Mount John Observatory, Lake Tekapo.  Observers A. C. Gilmore, P. M.
    Kilmartin.  Measurer P. M. Kilmartin.  1.0-m f/7.7 reflector + CCD.
568 Mauna Kea.  Observers R. Wainscoat, H. Januszewski, S. Prunet.  Measurers
    R. Weryk, R. Wainscoat.  3.6-m Canada-France-Hawaii Telescope + CCD.
F51 Pan-STARRS 1, Haleakala.  Observers J. Bulger, K. Chambers, T. Lowe, A.
    Schultz, M. Willman.  Measurers S. Chastel, M. Huber, Y. Ramanjooloo, R.
    Wainscoat, R. Weryk, K. Chambers, T. de Boer, L. Denneau, J. Fairlamb, H.
    Flewelling, C.-C. Lin, E. Magnier.  1.8-m Ritchey-Chretien + CCD.

Orbital elements:
2020 MV1                                                 Earth MOID = 0.1000 AU
Epoch 2020 May 31.0 TT = JDT 2459000.5                  Pan
M 331.70991              (2000.0)            P               Q
n   0.57533011     Peri.   21.44568     +0.37639023     +0.90956317
a   1.4317196      Node   271.01861     -0.87357575     +0.28511563
e   0.2265551      Incl.   10.14662     -0.30853817     +0.30233081
P   1.71           H   24.4           G   0.15           U   7
Residuals in seconds of arc
200615 F51  0.1+  0.2+    200621 F51  0.0   0.2-    200623 474  0.2-  0.2-
200615 F51  0.1-  0.2-    200622 568  0.1-  0.1+    200623 474  0.3-  0.3-
200621 F51  0.0   0.2+    200622 568  0.1-  0.0     200623 474  0.1+  0.0
200621 F51  0.1+  0.1+    200622 568  0.1-  0.1+    200623 474  0.7+  0.3+

Ephemeris:
2020 MV1                 a,e,i = 1.43, 0.23, 10                  q = 1.1074
Date    TT    R. A. (2000) Decl.     Delta      r    Elong.  Phase     V
2020 05 24    15 15 00.7 -49 59 52   0.1969  1.1862   149.2    25.9    22.4
...
2020 06 08    15 21 32.5 -40 56 43   0.1524  1.1514   151.7    24.7    21.8
...
2020 06 16    15 31 36.8 -32 56 36   0.1361  1.1365   150.6    26.0    21.5
...
2020 06 22    15 42 19.1 -25 35 52   0.1282  1.1271   147.9    28.6    21.5
2020 06 23    15 44 21.2 -24 17 20   0.1273  1.1257   147.3    29.2    21.5
2020 06 24    15 46 27.4 -22 57 43   0.1265  1.1243   146.7    29.7    21.5
...
2020 06 30    16 00 23.5 -14 47 24   0.1240  1.1173   142.3    33.8    21.5
...
2020 07 08    16 21 43.2 -04 10 30   0.1269  1.1107   135.5    39.9    21.7
...
2020 07 23    17 06 01.9 +11 07 33   0.1483  1.1077   125.0    48.7    22.3

M. P. C. Staff               (C) Copyright 2020 MPC           M.P.E.C. 2020-M84




More information about the Iaude mailing list